Content
SEND FEEDBACK

Daily
Averages
Monthly
Summary
Spain

CASERIO LA GIRONDA, SPAIN


Home > Europe > Spain
Elevation: 289 feet     Latitude: 37 01N     Longitude: 005 37W

WEATHER
 
SELECT A DAY
Number of Records: 150,963;   Date Range: 7/1/96 - 11/27/14
 
SHARE

PRINT THIS DATA

[ ← Previous Day ]
WEATHER ALMANAC - JANUARY 31, 2013
[ Next Day → ]
[ °C ]   °F
Weather ElementAverageHighLow
Temperature52.1 °F69.8 °F (5:00 pm)41 °F (5:00 am)
Dewpoint46.8 °F53.6 °F (2:00 pm)41 °F (5:00 am)
Humidity84.7 %100 % (2:00 am)49 % (6:00 pm)
Barometer30.44 in30.48 in (9:00 am)30.39 in (5:00 pm)
Wind Speed2.7 mph6.9 mph (1:00 pm)
Weather ElementAverage
Visibility3.9 mi
Wind DirectionESE (103.5 °)

Weather ElementTotal
Precipitation---
Heating Degree Days9.6 (Base 65)
Growing Degree Days5.4 (Base 50)
Averaged from 23 records on January 31, 2013
WEATHER CONDITIONS BREAKOUT
WIND DIRECTION BREAKOUT
WEATHER BY HOUR - JANUARY 31, 2013
[ °C ]   °F
Local TimeTemperatureDewpointHumidityBarometerVisibilityWind DirectionWind SpeedGust SpeedPrecipitationEventsConditions
2:00 AM44.6 °F44.6 °F100 %30.45 inVariable1.2 mphClear
3:00 AM42.8 °F42.8 °F100 %30.45 inVariable1.2 mphClear
4:00 AM42.8 °F42.8 °F100 %30.45 inSSE (150°)1.2 mphClear
5:00 AM41.0 °F41.0 °F100 %30.45 in5.6 miNorth (360°)1.2 mph
6:00 AM41.0 °F41.0 °F100 %30.45 in5.6 miNorth (360°)1.2 mph
7:00 AM41.0 °F41.0 °F100 %30.42 in3.7 miNorth (360°)1.2 mph
7:30 AM41.0 °F41.0 °F100 %30.42 in2.5 miVariable1.2 mphFogPatches of Fog
8:00 AM41.0 °F41.0 °F100 %30.45 in2.5 miENE (70°)3.5 mphFogPatches of Fog
9:00 AM41.0 °F41.0 °F100 %30.48 in1.6 miNorth (360°)4.6 mphFogPatches of Fog
10:00 AM46.4 °F46.4 °F100 %30.48 in2.5 miVariable2.3 mphMist
11:00 AM51.8 °F48.2 °F88 %30.48 in3.7 miNNE (30°)4.6 mph
12:00 PM57.2 °F50.0 °F77 %30.48 in5.0 miNorth (10°)5.8 mph
1:00 PM60.8 °F50.0 °F68 %30.48 in5.6 miNorth (10°)6.9 mph
2:00 PM64.4 °F53.6 °F68 %30.45 inNorth (10°)5.8 mphClear
3:00 PM66.2 °F53.6 °F64 %30.42 inNNE (30°)4.6 mphClear
4:00 PM68.0 °F51.8 °F56 %30.42 inEast (90°)3.5 mphClear
5:00 PM69.8 °F51.8 °F53 %30.39 inCalmClear
6:00 PM69.8 °F50.0 °F49 %30.39 inCalmClear
7:00 PM62.6 °F51.8 °F68 %30.42 inCalmClear
8:00 PM57.2 °F50.0 °F77 %30.42 inCalmClear
9:00 PM50.0 °F48.2 °F94 %30.42 inSouth (180°)2.3 mphClear
10:00 PM50.0 °F48.2 °F94 %30.45 inSouth (180°)4.6 mphClear
11:00 PM48.2 °F46.4 °F93 %30.45 in5.0 miSouth (180°)4.6 mph
Hourly data recorded from LEMO, located miles away from Caserio la Gironda, Spain







STORIES FROM OUR PARTNERS